Regional Weather Roundup
Issued by NWS

Home | Current Version | Previous Version | Graphics & Text | Print | Product List | Glossary On
Versions: 1 2 3 4 5 6 7 8 9 10 11 12 13 14 15 16 17 18 19 20 21 22 23 24 25 26 27 28 29 30 31 32 33 34 35 36 37 38 39 40 41 42 43 44 45 46 47 48 49 50
000
ASUS43 KDTX 230210
RWRMI
MICHIGAN HOURLY REGIONAL WEATHER ROUNDUP
NATIONAL WEATHER SERVICE DETROIT/PONTIAC MI
1000 PM EDT FRI MAY 22 2015

NOTE: "FAIR" INDICATES FEW OR NO CLOUDS BELOW 12,000 FEET WITH NO
SIGNIFICANT WEATHER AND/OR OBSTRUCTION TO VISIBILITY.

MIZ047>049-052>055-059>063-066>070-074>076-081>083-230300-
SOUTHEAST LOWER MICHIGAN

CITY           SKY/WX    TMP DP  RH WIND       PRES   REMARKS
ADRIAN         PTCLDY    58  35  42 N3        30.28R
ALMA           CLEAR     54  25  32 N5        30.30R
ANN ARBOR      PTCLDY    50  37  61 CALM      30.27R
BAD AXE        CLEAR     40  23  50 CALM      30.32R
CARO           CLEAR     43  28  57 E5        30.30R
DETROIT CITY   CLEAR     48  29  47 NE10      30.32R
DETROIT        PTCLDY    56  35  45 NE12      30.29R
FLINT          PTCLDY    50  32  50 E8        30.31R
GROSSE ILE     PTCLDY    54  43  66 E5        30.28R
HILLSDALE      PTCLDY    54  33  44 W6        30.29R
HOWELL         PTCLDY    49  34  57 SW3       30.27R

CITY           SKY/WX    TMP DP  RH WIND       PRES   REMARKS
JACKSON        PTCLDY    54  35  48 NW5       30.28R
LAMBERTVILLE   PTCLDY    52  39  62 CALM      30.27R
LANSING        PTCLDY    55  33  43 NW5       30.28R
LAPEER         FAIR      43  24  46 E5        30.31R
MASON          FAIR      55  32  41 W3        30.27R
MONROE         PTCLDY    54  45  71 CALM      30.26R
MT. CLEMENS    CLEAR     43  26  50 N5        30.29R
PONTIAC        PTCLDY    47  27  45 E8        30.30R
PORT HOPE        N/A     41  29  62 S5        30.30R
PORT HURON     CLEAR     41  28  60 CALM      30.31S
TRI CITIES     CLEAR     50  37  61 NE5       30.30R
MIDLAND        FAIR      47  36  64 CALM      30.29R
TROY           FAIR      49  24  37 NE9       30.33R
SAGINAW HB     CLEAR     52  30  43 N3        30.29R
$$
MIZ043>046-050>051-056>058-064>065-071>073-077>080-230300-
SOUTHWEST LOWER MICHIGAN

CITY           SKY/WX    TMP DP  RH WIND       PRES   REMARKS
BATTLE CREEK   PTCLDY    54  32  43 W7        30.31R
BENTON HARBOR  MOCLDY    47  36  65 CALM      30.30R
BIG RAPIDS     CLEAR     49  27  42 W5        30.28R
COLDWATER      PTCLDY    54  31  42 N5        30.29R
FREMONT        FAIR      50  18  28 CALM      30.28R
HOLLAND        MOCLDY    49  38  65 SW3       30.31R
GRAND RAPIDS   MOCLDY    56  25  30 W6        30.30R
IONIA          FAIR      57  28  32 NW6       30.28R
KALAMAZOO      PTCLDY    54  30  40 N6        30.30R
LUDINGTON      CLEAR     45  32  58 CALM      30.27S
MARSHALL       PTCLDY    52  35  51 CALM      30.29R
MOUNT PLEASANT CLEAR     50  28  43 CALM      30.28R
MUSKEGON       MOCLDY    46  33  60 SW5       30.30R
SOUTH HAVEN    PTCLDY    46  39  74 CALM      30.30S
$$
MIZ016>042-230300-
NORTHERN LOWER MICHIGAN

CITY           SKY/WX    TMP DP  RH WIND       PRES   REMARKS
ALPENA         CLEAR     44  28  53 CALM      30.29R
BEAVER ISLAND  CLEAR     40  25  54 CALM      30.28S
BELLAIRE       CLEAR     41  33  72 CALM      30.29R
CADILLAC       CLEAR     49  25  38 CALM      30.26R
CHARLEVOIX     CLEAR     44  30  58 CALM      30.31S
FRANKFORT      CLEAR     46  28  50 CALM      30.26S
GAYLORD        CLEAR     45  24  43 CALM      30.28R
GRAYLING       CLEAR     43  25  49 CALM      30.29S
HARBOR SPRINGS CLEAR     42  32  67 CALM      30.29R
HOUGHTON LAKE  CLEAR     41  30  65 NE3       30.28S
MANISTEE       CLEAR     46  30  53 CALM      30.28R
OSCODA         CLEAR     41  29  62 SW3       30.30R
PELLSTON       CLEAR     40  26  57 CALM      30.29R
ROGERS CITY    CLEAR     37  30  76 CALM      30.30R
TRAVERSE CITY  PTCLDY    47  30  51 CALM      30.27F
$$
MIZ007>008-015-230300-
EASTERN UPPER MICHIGAN

CITY           SKY/WX    TMP DP  RH WIND       PRES   REMARKS
KINROSS        CLEAR     39  21  48 NW3       30.27S
MACKINAC ISLAN CLEAR     45  31  57 W6        30.27S
NEWBERRY       CLEAR     38  28  67 CALM      30.27R
S. S. MARIE    CLEAR     38  21  50 W5        30.27R WCI  34
MUNISING         N/A     45  27  49 CALM      30.25S
$$
MIZ004>006-011>014-085-230300-
CENTRAL UPPER MICHIGAN

CITY           SKY/WX    TMP DP  RH WIND       PRES   REMARKS
MANISTIQUE     CLEAR     42  35  75 SW3       30.27S
ESCANABA       CLEAR     45  30  57 CALM      30.27S
MENOMINEE      CLEAR     48  27  43 S8        30.25R
SAWYER-GWINN   CLEAR     52  23  32 SE5       30.25S
$$
MIZ001>003-009>011-084-230300-
WESTERN UPPER MICHIGAN

CITY           SKY/WX    TMP DP  RH WIND       PRES   REMARKS
IRON MOUNTAIN  CLEAR     53  32  44 SE7       30.23R
HOUGHTON       CLEAR     42  28  57 E5        30.20S
COPPER HARBOR    N/A     42  24  49 SW13G22   30.20S
IRONWOOD       CLEAR     54  39  58 CALM      30.16R
$$

ABBREVIATIONS USED IN REMARKS
   TC - TEMPERATURE IN CELSIUS
  WCI - WIND CHILL INDEX
   HX - HEAT INDEX
  VSB - VISIBILITY




USA.gov is the U.S. government's official web portal to all federal, state and local government web resources and services.